N5AET-1 Weather Reports


Display with metric or nautical units.
time (UTC)temp
F
wind
direction
speed
MPH
gust
MPH
rain 1hr
in
rain 24hr
in
rain mn
in
humidity
%
barometer
mb
20260503180017 80 227 2.0 6.0 0.00 0.00 0.00 38 994.6
20260503175016 79 268 5.0 11.0 0.00 0.00 0.00 39 994.8
20260503174017 79 182 3.0 6.0 0.00 0.00 0.00 39 995.0
20260503173016 79 234 4.0 9.0 0.00 0.00 0.00 39 995.1
20260503172036 79 229 0.0 8.0 0.00 0.00 0.00 42 995.2
20260503171017 79 225 2.0 7.0 0.00 0.00 0.00 41 995.4
20260503131037 63 240 2.0 7.0 0.00 0.00 0.00 65 995.6
20260503081016 62 248 0.0 1.0 0.00 0.00 0.00 59 994.4
20260503072016 61 0.0 0.0 0.00 0.00 0.00 61 994.7
20260503071016 62 0.0 0.0 0.00 0.00 0.00 60 994.7
20260503055016 64 0.0 1.0 0.00 0.00 0.00 57 994.5
20260503054036 64 0.0 0.0 0.00 0.00 0.00 57 994.6
20260503053016 63 0.0 0.0 0.00 0.00 0.00 57 994.6
20260503052016 63 0.0 0.0 0.00 0.00 0.00 58 994.5
20260503051016 63 0.0 0.0 0.00 0.00 0.00 57 994.4
20260503045515 63 0.0 0.0 0.00 0.00 0.00 57 994.4
20260503044535 63 0.0 0.0 0.00 0.00 0.00 57 994.4
20260503043515 63 0.0 0.0 0.00 0.00 0.00 57 994.4
20260503042515 63 0.0 0.0 0.00 0.00 0.00 56 994.4
20260503041515 63 0.0 0.0 0.00 0.00 0.00 57 994.3
20260503040515 63 0.0 0.0 0.00 0.00 0.00 57 994.3
20260503035515 62 0.0 0.0 0.00 0.00 0.00 59 994.4
20260503034535 62 0.0 0.0 0.00 0.00 0.00 61 994.4
20260503033515 62 0.0 0.0 0.00 0.00 0.00 62 994.4
20260503032515 62 0.0 0.0 0.00 0.00 0.00 62 994.3
20260503031535 62 0.0 0.0 0.00 0.00 0.00 62 994.2
20260503030515 62 0.0 0.0 0.00 0.00 0.00 60 994.1
20260503025515 62 0.0 0.0 0.00 0.00 0.00 62 994.0
20260503024515 63 0.0 0.0 0.00 0.00 0.00 63 994.0
20260503023515 63 0.0 0.0 0.00 0.00 0.00 61 993.9
20260503022515 64 0.0 0.0 0.00 0.00 0.00 59 993.8
20260503021515 65 0.0 0.0 0.00 0.00 0.00 57 993.8
20260503020515 66 0.0 0.0 0.00 0.00 0.00 53 993.6
20260503015515 67 0.0 0.0 0.00 0.00 0.00 50 993.6
20260503014515 68 0.0 0.0 0.00 0.00 0.00 47 993.5
20260503013515 70 0.0 0.0 0.00 0.00 0.00 45 993.5
20260503012535 71 0.0 0.0 0.00 0.00 0.00 44 993.5
20260503011535 72 0.0 0.0 0.00 0.00 0.00 41 993.4
20260503010515 72 245 0.0 1.0 0.00 0.00 0.00 41 993.3
20260503005515 73 0.0 0.0 0.00 0.00 0.00 41 993.2
20260503004515 74 0.0 0.0 0.00 0.00 0.00 38 993.1
20260503003515 75 0.0 1.0 0.00 0.00 0.00 37 993.1
20260503002515 76 298 0.0 1.0 0.00 0.00 0.00 35 993.0
20260503001515 75 0.0 0.0 0.00 0.00 0.00 37 993.0
20260503000555 76 293 1.0 4.0 0.00 0.00 0.00 36 993.0
20260502235515 76 285 1.0 4.0 0.00 0.00 0.00 36 993.1
20260502234515 77 0.0 1.0 0.00 0.00 0.00 35 993.0
20260502233515 77 278 1.0 5.0 0.00 0.00 0.00 34 993.1
20260502232535 76 276 0.0 6.0 0.00 0.00 0.00 34 993.3
20260502231535 76 258 1.0 6.0 0.00 0.00 0.00 35 993.3
20260502230515 77 283 3.0 6.0 0.00 0.00 0.00 33 993.3
20260502225515 77 278 2.0 7.0 0.00 0.00 0.00 32 993.3
20260502224515 78 242 2.0 5.0 0.00 0.00 0.00 29 993.4
20260502223515 79 281 0.0 2.0 0.00 0.00 0.00 31 993.4
20260502222555 78 78 0.0 1.0 0.00 0.00 0.00 31 993.5
20260502221515 77 0.0 1.0 0.00 0.00 0.00 31 993.5
20260502220535 77 281 1.0 3.0 0.00 0.00 0.00 33 993.5
20260502215515 79 261 3.0 5.0 0.00 0.00 0.00 31 993.6
20260502214515 78 0.0 0.0 0.00 0.00 0.00 31 993.7
20260502213535 78 335 3.0 7.0 0.00 0.00 0.00 31 993.8
20260502212515 78 0.0 0.0 0.00 0.00 0.00 32 994.0
20260502211515 77 282 0.0 2.0 0.00 0.00 0.00 31 994.0
20260502210515 78 4 0.0 1.0 0.00 0.00 0.00 31 994.1
20260502205515 77 0.0 1.0 0.00 0.00 0.00 31 994.3
20260502204515 76 294 1.0 5.0 0.00 0.00 0.00 32 994.4
20260502203515 77 36 1.0 2.0 0.00 0.00 0.00 32 994.4
20260502202515 77 9 1.0 3.0 0.00 0.00 0.00 32 994.6
20260502201515 77 355 0.0 1.0 0.00 0.00 0.00 32 994.7
20260502200515 76 0.0 0.0 0.00 0.00 0.00 33 994.9
20260502195515 77 0.0 1.0 0.00 0.00 0.00 31 995.1
20260502194535 77 0.0 0.0 0.00 0.00 0.00 31 995.1
20260502193515 76 284 1.0 4.0 0.00 0.00 0.00 31 995.1
20260502192515 76 0.0 1.0 0.00 0.00 0.00 31 995.3
20260502191535 75 291 0.0 2.0 0.00 0.00 0.00 33 995.4
20260502190515 74 346 1.0 5.0 0.00 0.00 0.00 33 995.4
20260502185515 76 145 0.0 1.0 0.00 0.00 0.00 34 995.6
20260502184515 75 0.0 1.0 0.00 0.00 0.00 33 995.7
20260502183515 75 358 1.0 2.0 0.00 0.00 0.00 34 995.8
20260502182515 74 283 1.0 4.0 0.00 0.00 0.00 35 996.0
20260502181515 74 278 1.0 3.0 0.00 0.00 0.00 34 996.0